• în Republica Moldova
  • Lista ţărilor
  • Pe 7 zile
  • Temperatura apei
  • Hartă satelitară
  • Meteo pe hartă
  • Widget-uri
  • user-avatar
    Intrare

    Meteo pe oră la Vlorë

    Astăzi, 26 Iulie, Miercuri

    Timp Temperatura Precipitaţii Vânt Presiune Umiditate
    00:00 +25°C° 0 mm 4 m/s 753 mmHg 66%
    01:00 +25°C° 0 mm 4 m/s 753 mmHg 67%
    02:00 +25°C° 0 mm 4 m/s 753 mmHg 68%
    03:00 +23°C° 0 mm 4 m/s 753 mmHg 68%
    04:00 +24°C° 0 mm 3 m/s 753 mmHg 69%
    05:00 +25°C° 0 mm 3 m/s 753 mmHg 66%
    06:00 +26°C° 0 mm 3 m/s 753 mmHg 64%
    07:00 +28°C° 0 mm 3 m/s 753 mmHg 62%
    08:00 +29°C° 0,1 mm 3 m/s 753 mmHg 58%
    09:00 +30°C° 0,1 mm 3 m/s 753 mmHg 55%
    10:00 +31°C° 0,1 mm 3 m/s 754 mmHg 52%
    11:00 +31°C° 0 mm 3 m/s 753 mmHg 51%
    12:00 +31°C° 0 mm 3 m/s 753 mmHg 50%
    13:00 +31°C° 0 mm 3 m/s 753 mmHg 50%
    14:00 +31°C° 0,1 mm 3 m/s 753 mmHg 50%
    15:00 +30°C° 0,1 mm 3 m/s 753 mmHg 49%
    16:00 +30°C° 0,1 mm 4 m/s 753 mmHg 49%
    17:00 +29°C° 0 mm 3 m/s 753 mmHg 56%
    18:00 +27°C° 0 mm 3 m/s 753 mmHg 62%
    19:00 +26°C° 0 mm 2 m/s 753 mmHg 68%
    20:00 +25°C° 0 mm 2 m/s 754 mmHg 71%
    21:00 +24°C° 0 mm 1 m/s 754 mmHg 73%
    22:00 +24°C° 0 mm 1 m/s 755 mmHg 76%
    23:00 +23°C° 0 mm 1 m/s 754 mmHg 76%

    Mâine, 27 Iulie, Joi

    Timp Temperatura Precipitaţii Vânt Presiune Umiditate
    00:00 +23°C° 0 mm 1 m/s 754 mmHg 76%
    01:00 +23°C° 0 mm 1 m/s 754 mmHg 76%
    02:00 +21°C° 0 mm 2 m/s 754 mmHg 76%
    03:00 +21°C° 0 mm 2 m/s 754 mmHg 77%
    04:00 +21°C° 0 mm 3 m/s 755 mmHg 77%
    05:00 +22°C° 0 mm 3 m/s 755 mmHg 72%
    06:00 +23°C° 0 mm 4 m/s 755 mmHg 68%
    07:00 +26°C° 0 mm 4 m/s 755 mmHg 63%
    08:00 +27°C° 0 mm 4 m/s 755 mmHg 57%
    09:00 +28°C° 0 mm 5 m/s 756 mmHg 52%
    10:00 +30°C° 0 mm 5 m/s 756 mmHg 46%
    11:00 +30°C° 0 mm 6 m/s 756 mmHg 44%
    12:00 +32°C° 0 mm 7 m/s 756 mmHg 42%
    13:00 +33°C° 0 mm 8 m/s 755 mmHg 41%
    14:00 +32°C° 0 mm 8 m/s 756 mmHg 43%
    15:00 +32°C° 0 mm 8 m/s 756 mmHg 45%
    16:00 +31°C° 0 mm 8 m/s 756 mmHg 47%
    17:00 +29°C° 0 mm 7 m/s 756 mmHg 53%
    18:00 +27°C° 0 mm 6 m/s 756 mmHg 59%
    19:00 +26°C° 0 mm 6 m/s 757 mmHg 65%
    20:00 +25°C° 0 mm 5 m/s 757 mmHg 68%
    21:00 +23°C° 0 mm 4 m/s 757 mmHg 71%
    22:00 +22°C° 0 mm 4 m/s 758 mmHg 74%
    23:00 +22°C° 0 mm 3 m/s 758 mmHg 73%

    Poimâine, 28 Iulie, Vineri

    Timp Temperatura Precipitaţii Vânt Presiune Umiditate
    00:00 +21°C° 0 mm 3 m/s 758 mmHg 71%
    01:00 +21°C° 0 mm 3 m/s 758 mmHg 69%
    02:00 +21°C° 0 mm 3 m/s 758 mmHg 67%
    03:00 +21°C° 0 mm 3 m/s 758 mmHg 65%
    04:00 +21°C° 0 mm 3 m/s 759 mmHg 63%
    05:00 +24°C° 0 mm 3 m/s 759 mmHg 59%
    06:00 +26°C° 0 mm 3 m/s 759 mmHg 55%
    07:00 +27°C° 0 mm 3 m/s 759 mmHg 51%
    08:00 +29°C° 0 mm 3 m/s 760 mmHg 45%
    09:00 +30°C° 0 mm 3 m/s 760 mmHg 39%
    10:00 +33°C° 0 mm 3 m/s 760 mmHg 33%
    11:00 +34°C° 0 mm 3 m/s 760 mmHg 32%
    12:00 +35°C° 0 mm 4 m/s 760 mmHg 30%
    13:00 +35°C° 0 mm 4 m/s 760 mmHg 29%
    14:00 +35°C° 0 mm 4 m/s 760 mmHg 31%
    15:00 +35°C° 0 mm 4 m/s 760 mmHg 32%
    16:00 +35°C° 0 mm 4 m/s 759 mmHg 33%
    17:00 +33°C° 0 mm 4 m/s 760 mmHg 39%
    18:00 +30°C° 0 mm 3 m/s 760 mmHg 44%
    19:00 +28°C° 0 mm 3 m/s 760 mmHg 49%
    20:00 +27°C° 0 mm 2 m/s 761 mmHg 49%
    21:00 +26°C° 0 mm 2 m/s 761 mmHg 50%
    22:00 +26°C° 0 mm 2 m/s 762 mmHg 50%
    23:00 +25°C° 0 mm 2 m/s 762 mmHg 49%

    29 Iulie, Sâmbătă

    Timp Temperatura Precipitaţii Vânt Presiune Umiditate
    00:00 +25°C° 0 mm 2 m/s 762 mmHg 48%
    01:00 +25°C° 0 mm 2 m/s 762 mmHg 48%
    02:00 +25°C° 0 mm 2 m/s 762 mmHg 47%
    03:00 +25°C° 0 mm 2 m/s 762 mmHg 47%
    04:00 +24°C° 0 mm 2 m/s 762 mmHg 47%
    05:00 +26°C° 0 mm 2 m/s 762 mmHg 45%
    06:00 +28°C° 0 mm 2 m/s 762 mmHg 43%
    07:00 +30°C° 0 mm 2 m/s 762 mmHg 40%
    08:00 +32°C° 0 mm 2 m/s 762 mmHg 37%
    09:00 +35°C° 0 mm 2 m/s 763 mmHg 34%
    10:00 +37°C° 0 mm 2 m/s 763 mmHg 31%
    11:00 +37°C° 0 mm 2 m/s 763 mmHg 30%
    12:00 +38°C° 0 mm 3 m/s 762 mmHg 29%
    13:00 +38°C° 0 mm 3 m/s 762 mmHg 28%
    14:00 +38°C° 0 mm 3 m/s 762 mmHg 29%
    15:00 +37°C° 0 mm 3 m/s 762 mmHg 30%
    16:00 +37°C° 0 mm 3 m/s 762 mmHg 31%
    17:00 +35°C° 0 mm 3 m/s 762 mmHg 35%
    18:00 +32°C° 0 mm 2 m/s 762 mmHg 39%
    19:00 +30°C° 0 mm 2 m/s 762 mmHg 43%
    20:00 +29°C° 0 mm 2 m/s 762 mmHg 44%
    21:00 +29°C° 0 mm 2 m/s 762 mmHg 44%
    22:00 +28°C° 0 mm 1 m/s 763 mmHg 44%
    23:00 +28°C° 0 mm 1 m/s 762 mmHg 45%

    30 Iulie, Duminică

    Timp Temperatura Precipitaţii Vânt Presiune Umiditate
    00:00 +28°C° 0 mm 1 m/s 762 mmHg 46%
    01:00 +28°C° 0 mm 1 m/s 762 mmHg 46%
    02:00 +27°C° 0 mm 1 m/s 762 mmHg 48%
    03:00 +27°C° 0 mm 1 m/s 762 mmHg 49%
    04:00 +27°C° 0 mm 2 m/s 762 mmHg 50%
    05:00 +28°C° 0 mm 2 m/s 762 mmHg 48%
    06:00 +30°C° 0 mm 2 m/s 762 mmHg 46%
    07:00 +31°C° 0 mm 2 m/s 762 mmHg 44%
    08:00 +34°C° 0 mm 2 m/s 762 mmHg 40%
    09:00 +36°C° 0 mm 2 m/s 762 mmHg 36%
    10:00 +38°C° 0 mm 2 m/s 762 mmHg 32%
    11:00 +38°C° 0 mm 2 m/s 762 mmHg 31%
    12:00 +39°C° 0 mm 3 m/s 761 mmHg 30%
    13:00 +40°C° 0 mm 4 m/s 761 mmHg 29%
    14:00 +40°C° 0 mm 4 m/s 761 mmHg 30%
    15:00 +38°C° 0 mm 4 m/s 761 mmHg 31%
    16:00 +37°C° 0 mm 4 m/s 760 mmHg 33%
    17:00 +36°C° 0 mm 3 m/s 761 mmHg 36%
    18:00 +34°C° 0 mm 3 m/s 761 mmHg 39%
    19:00 +31°C° 0 mm 3 m/s 761 mmHg 42%
    20:00 +30°C° 0 mm 3 m/s 761 mmHg 43%
    21:00 +30°C° 0 mm 3 m/s 761 mmHg 43%
    22:00 +29°C° 0 mm 3 m/s 761 mmHg 43%
    23:00 +29°C° 0 mm 3 m/s 761 mmHg 44%

    31 Iulie, Luni

    Timp Temperatura Precipitaţii Vânt Presiune Umiditate
    00:00 +29°C° 0 mm 3 m/s 761 mmHg 45%
    01:00 +28°C° 0 mm 3 m/s 761 mmHg 46%
    02:00 +28°C° 0 mm 3 m/s 761 mmHg 47%
    03:00 +28°C° 0 mm 3 m/s 760 mmHg 48%
    04:00 +28°C° 0 mm 3 m/s 760 mmHg 49%
    05:00 +29°C° 0 mm 3 m/s 761 mmHg 46%
    06:00 +31°C° 0 mm 3 m/s 761 mmHg 44%
    07:00 +33°C° 0 mm 3 m/s 761 mmHg 42%
    08:00 +35°C° 0 mm 3 m/s 761 mmHg 38%
    09:00 +37°C° 0 mm 4 m/s 761 mmHg 35%
    10:00 +40°C° 0 mm 4 m/s 760 mmHg 32%
    11:00 +40°C° 0 mm 4 m/s 760 mmHg 31%
    12:00 +41°C° 0 mm 5 m/s 760 mmHg 29%
    13:00 +41°C° 0 mm 5 m/s 760 mmHg 28%
    14:00 +41°C° 0 mm 5 m/s 759 mmHg 30%
    15:00 +40°C° 0 mm 5 m/s 759 mmHg 31%
    16:00 +40°C° 0 mm 5 m/s 759 mmHg 33%
    17:00 +37°C° 0 mm 4 m/s 759 mmHg 38%
    18:00 +35°C° 0 mm 4 m/s 760 mmHg 43%
    19:00 +33°C° 0 mm 3 m/s 760 mmHg 48%
    20:00 +31°C° 0 mm 3 m/s 760 mmHg 49%
    21:00 +30°C° 0 mm 3 m/s 760 mmHg 50%
    22:00 +30°C° 0 mm 2 m/s 761 mmHg 50%
    23:00 +30°C° 0 mm 2 m/s 761 mmHg 51%
    Arată mai mult